Dewpoint
69 65 65 66 64 63 61 61 63 70 70 71 71 71 71 71 70 69 69 69 68 61
70 68 65 67 66 64 65 62 64 66 69 69 70 71 71 69 70 70 70 70 70 68
67 69 68 67 67 67 65 67 64 67 67 67 69 70 71 68 70 70 70 68 68 70
66 67 68 67 68 68 68 67 69 67 66 68 69 70 71 70 68 70 70 70 69 70
67 67 66 68 68 69 69 69 69 68 68 67 68 69 71 70 68 69 70 70 70 70
66 66 66 68 68 69 69 70 69 68 69 68 67 69 70 70 70 69 69 70 69 70
66 66 66 68 69 68 70 70 69 69 69 69 68 67 69 69 70 69 69 70 70 70
68 68 68 69 70 70 70 70 70 69 69 69 68 66 67 68 68 69 69 69 70 71
69 70 70 70 71 71 71 71 70 69 69 69 68 65 65 66 66 67 69 69 70 71
70 71 71 71 72 71 71 71 71 70 69 70 70 67 65 66 66 65 67 69 69 68
71 71 72 72 72 73 71 71 71 71 71 71 71 69 67 66 68 68 68 68 68 70
71 71 71 71 72 72 71 71 71 71 72 72 72 69 69 68 68 68 70 69 70 70
71 71 71 72 72 72 72 71 70 70 71 71 72 71 68 68 69 67 67 69 72 70
71 72 72 73 73 73 71 70 71 70 71 72 72 72 69 67 70 66 65 65 64 65
Wind_Speed
24 22 22 20 16 16 15 13 11 14 14 13 11 11 8 9 10 8 8 8 7 6
25 24 22 19 19 17 14 12 12 14 16 15 14 13 10 10 9 7 9 8 9 10
28 25 23 19 20 18 17 16 13 15 17 16 16 14 13 11 11 10 10 10 9 9
29 28 25 24 22 21 19 17 17 16 17 17 16 16 15 14 11 13 12 11 10 12
28 27 27 25 24 21 21 20 19 18 18 18 18 17 17 17 15 16 15 14 14 14
31 29 28 27 25 23 22 22 21 20 19 19 19 18 18 17 17 16 17 16 17 16
32 31 30 27 25 25 23 23 23 21 21 20 20 20 19 19 18 17 17 17 17 18
31 30 28 26 26 25 24 24 24 23 22 21 21 21 22 21 20 19 19 18 18 19
29 29 29 27 27 25 25 25 23 25 24 24 22 23 24 22 21 20 20 20 20 20
29 29 29 28 27 27 26 24 24 25 24 24 24 23 24 26 24 21 21 20 20 20
29 29 28 28 28 27 26 25 24 25 24 24 25 25 26 26 24 23 23 22 22 22
31 30 29 29 28 27 26 24 25 25 25 25 25 26 28 24 24 25 25 24 24 23
30 30 30 28 28 26 24 26 25 26 25 27 25 23 26 27 23 23 23 22 23 26
28 28 26 25 25 26 26 23 24 24 23 24 25 24 27 29 26 24 22 23 22 22
Wind_Direction
206 212 214 210 224 216 224 216 208 198 213 213 204 207 197 197 213 195 213 215 241 253
204 215 214 220 213 225 225 230 222 213 215 215 212 209 200 223 202 212 216 211 221 241
207 209 220 217 221 222 225 224 230 214 216 214 211 208 206 215 208 216 219 225 215 237
208 210 212 219 219 221 225 220 220 215 213 211 211 208 207 223 230 213 223 234 229 228
204 208 211 215 219 216 217 221 221 214 214 216 218 214 211 214 222 224 227 229 230 232
205 205 208 210 215 212 214 218 220 216 215 218 220 217 217 218 222 228 229 229 229 232
200 204 207 207 207 209 210 214 217 216 216 220 223 222 222 220 226 230 232 232 232 233
199 201 202 203 203 206 207 212 213 211 216 219 222 224 222 225 227 229 235 237 235 235
196 197 198 199 199 201 207 211 211 212 213 217 223 223 222 224 229 231 234 239 239 244
194 196 197 196 197 199 204 208 211 213 213 216 221 226 219 216 230 235 234 239 244 246
194 196 195 196 198 199 202 206 208 212 215 218 220 220 219 216 223 234 243 246 244 245
193 195 195 198 198 200 203 205 209 212 213 217 224 215 214 210 227 236 240 244 246 247
192 193 195 194 194 197 201 206 209 213 214 218 224 219 214 208 228 235 240 241 242 245
193 192 194 194 192 192 198 204 209 213 216 218 219 227 209 208 222 234 235 240 245 244